Regional Weather Roundup
Issued by NWS

Home | Current Version | Previous Version | Text Only | Print | Product List | Glossary On
Versions: 1 2 3 4 5 6 7 8 9 10 11 12 13 14 15 16 17 18 19 20 21 22 23 24 25 26 27 28 29 30 31 32 33 34 35 36 37 38 39 40 41 42 43 44 45 46 47 48 49 50
000
ASUS46 KSTO 300309
RWRCA

NORTHERN AND CENTRAL CA REGIONAL WEATHER ROUNDUP
NATIONAL WEATHER SERVICE SACRAMENTO CA
800 PM PDT MON AUG 29 2016

NOTE: FAIR INDICATES FEW OR NO CLOUDS BELOW 12,000 FEET WITH NO
SIGNIFICANT WEATHER AND/OR OBSTRUCTIONS TO VISIBILITY.

CAZ001-003-300400-
NORTHWEST AREA

CITY           SKY/WX    TMP DP  RH WIND       PRES   REMARKS
CRESCENT CITY  MOCLDY    57  52  83 W3        30.12R
ARCATA         NOT AVBL
SHELTER COVE   NOT AVBL
UKIAH          PTCLDY    66  52  60 N6        30.02R
$$

CAZ006-505>513-300400-
BAY AREA

CITY           SKY/WX    TMP DP  RH WIND       PRES   REMARKS
SANTA ROSA     MOCLDY    67  54  63 SE8       29.97R
SAN RAFAEL     N/A       73  MM  MM MISG
NAPA           CLOUDY    65  54  67 SW8       29.98S
CONCORD        PTCLDY    70  50  49 SW12      29.99S
OAKLAND CITY   N/A       71  MM  MM MISG
OAKLAND        MOCLDY    66  57  72 W17       30.01S
SAN FRAN CITY  N/A       61  MM  80 MISG
SAN FRAN ARPT  MOCLDY    63  55  75 W18       30.03R
LIVERMORE      CLEAR     65  54  67 NW12      30.00R
HAYWARD        PTCLDY    64  54  69 W14       30.02S
REDWOOD CITY   N/A       MM  MM  MM MISG
MOFFETT ARPT   PTCLDY    66  52  60 NW8       30.02S
SAN JOSE ARPT  PTCLDY    66  54  65 NW14      30.02R
$$
CAZ034-037-514>518-300400-
CENTRAL COAST

CITY           SKY/WX    TMP DP  RH WIND       PRES   REMARKS
WATSONVILLE    CLEAR     65  57  75 SE7       30.00R
SALINAS        CLEAR     64  54  69 W13G21    30.00R
MONTEREY       CLEAR     61  55  81 SW7       30.03S
PT PIEDRAS BLS NOT AVBL
SAN LUIS OBISP CLEAR     63  55  75 NW10      29.94R
SANTA MARIA    CLEAR     60  55  83 NW7       29.95R
$$
CAZ015-016-300400-
NORTHERN SACRAMENTO VALLEY

CITY           SKY/WX    TMP DP  RH WIND       PRES   REMARKS
REDDING        CLOUDY    84  40  21 SE5       29.91R
RED BLUFF      CLOUDY    81  51  35 S8        29.92S
OROVILLE       CLOUDY    81  52  36 CALM      29.93R
$$
CAZ016>018-300400-
SOUTHERN SACRAMENTO VALLEY

CITY           SKY/WX    TMP DP  RH WIND       PRES   REMARKS
AUBURN         MOCLDY    79  46  31 CALM      30.00F
BEALE AFB      CLEAR     76  51  41 S6        29.90R
LINCOLN        FAIR      79  39  24 S5        29.91R
MARYSVILLE     CLOUDY    78  52  40 S3        29.91S
SAC INTL ARPT  CLOUDY    73  53  49 S10       29.91S
MATHER AIRPORT PTCLDY    75  54  46 SW9       29.94R
DOWNTOWN SAC   N/A       72  MM  MM MISG
SAC EXEC ARPT  MOCLDY    70  50  49 SW9       29.93R
VACAVILLE      MOCLDY    76  50  40 SW8       29.93R
TRAVIS AFB     MOCLDY    66  53  62 SW20      29.92S
$$
CAZ019>021-300400-
SAN JOAQUIN VALLEY

CITY           SKY/WX    TMP DP  RH WIND       PRES   REMARKS
STOCKTON       CLEAR     75  54  47 NW17      29.94R
MODESTO        CLEAR     82  53  36 NW10      29.92R
MERCED         CLEAR     80  53  39 NW8       29.91R
LEMOORE        PTCLDY    84  52  33 NW8       29.90S
FRESNO         PTCLDY    87  54  32 NW12      29.90R
HANFORD        CLEAR     88  51  28 W6        29.90R
PORTERVILLE    PTCLDY    86  60  41 CALM      29.91R
BAKERSFIELD    CLEAR     89  55  31 NW5       29.91R
$$
CAZ011-012-071-300400-
NORTHERN MOUNTAINS

CITY           SKY/WX    TMP DP  RH WIND       PRES   REMARKS
YREKA          CLOUDY    80  24  12 S14       29.99R
MOUNT SHASTA   MOCLDY    68  33  27 CALM      30.09R
ALTURAS        MOCLDY    74  31  20 W6        30.11R
$$
CAZ011-012-071-300400-
SIERRA NEVADA MTNS

CITY           SKY/WX    TMP DP  RH WIND       PRES   REMARKS
BLUE CANYON    MOCLDY    68  39  34 CALM      30.24F
TRUCKEE        MOCLDY    66  32  28 SW6       30.26S
TAHOE VLY ARPT PTCLDY    68  35  29 S5        30.28R
MAMMOTH LAKES  FAIR      72  23  16 W7G16     30.33R
$$




USA.gov is the U.S. government's official web portal to all federal, state and local government web resources and services.